contact:dominique.lefevre@mio.osupytheas.fr, maurice.libes@osupytheas.fr, didier.mallarino@osupytheas.fr
Project:EMSO http://www.emso-fr.org/EMSO-France
Depth: 2436.0 m
Title:EMSO Ligure Ouest : Data MII capteur CSTAR
DateTime,Latitude,Longitude,Instrument_Serial,Reference_Counts,Signal_Counts,Corrected_Signal_raw_counts,Calculated_Beam_c_inverse_meters,Internal_thermistor_counts
DateTime,Latitude,Longitude,Instrument_Serial,Reference_Counts,Signal_Counts,Corrected_Signal_raw_counts,Calculated_Beam_c_inverse_meters,Internal_thermistor_counts
2022-04-08T00:00:46,42.805,6.029,CST-1368DR,4815,5636,12488,0.894,551
2022-04-08T00:03:48,42.805,6.029,CST-1368DR,4815,5641,12500,0.890,551
2022-04-08T00:06:49,42.805,6.029,CST-1368DR,4815,5634,12483,0.896,551
2022-04-08T00:09:51,42.805,6.029,CST-1368DR,4815,5638,12493,0.893,551
2022-04-08T00:12:53,42.805,6.029,CST-1368DR,4815,5648,12514,0.886,551
2022-04-08T00:15:54,42.805,6.029,CST-1368DR,4815,5627,12469,0.900,551
2022-04-08T00:18:56,42.805,6.029,CST-1368DR,4815,5637,12490,0.893,551
2022-04-08T00:21:57,42.805,6.029,CST-1368DR,4815,5629,12472,0.899,551
2022-04-08T00:24:59,42.805,6.029,CST-1368DR,4815,5633,12482,0.896,551
2022-04-08T00:28:01,42.805,6.029,CST-1368DR,4815,5639,12495,0.892,551
2022-04-08T00:31:02,42.805,6.029,CST-1368DR,4815,5638,12491,0.893,551
2022-04-08T00:34:04,42.805,6.029,CST-1368DR,4815,5640,12496,0.892,551
2022-04-08T00:37:05,42.805,6.029,CST-1368DR,4815,5639,12494,0.892,551
2022-04-08T00:40:07,42.805,6.029,CST-1368DR,4815,5643,12503,0.889,551
2022-04-08T00:43:08,42.805,6.029,CST-1368DR,4815,5645,12509,0.887,551
2022-04-08T00:46:10,42.805,6.029,CST-1368DR,4815,5635,12486,0.895,551
2022-04-08T00:49:12,42.805,6.029,CST-1368DR,4815,5638,12493,0.893,551
2022-04-08T00:52:13,42.805,6.029,CST-1368DR,4815,5644,12505,0.889,551
2022-04-08T00:55:15,42.805,6.029,CST-1368DR,4815,5647,12511,0.887,551
2022-04-08T00:58:16,42.805,6.029,CST-1368DR,4815,5639,12494,0.892,551
2022-04-08T01:01:18,42.805,6.029,CST-1368DR,4815,5640,12496,0.892,551
2022-04-08T01:04:19,42.805,6.029,CST-1368DR,4815,5636,12488,0.894,551
2022-04-08T01:07:21,42.805,6.029,CST-1368DR,4815,5643,12503,0.889,551
2022-04-08T01:10:23,42.805,6.029,CST-1368DR,4815,5645,12508,0.888,551
2022-04-08T01:13:24,42.805,6.029,CST-1368DR,4815,5657,12535,0.879,551
2022-04-08T01:16:26,42.805,6.029,CST-1368DR,4815,5655,12530,0.881,551
2022-04-08T01:19:27,42.805,6.029,CST-1368DR,4815,5638,12492,0.893,551
2022-04-08T01:22:29,42.805,6.029,CST-1368DR,4815,5645,12508,0.888,551
2022-04-08T01:25:31,42.805,6.029,CST-1368DR,4815,5646,12509,0.887,551
2022-04-08T01:28:32,42.805,6.029,CST-1368DR,4815,5646,12511,0.887,551
2022-04-08T01:31:34,42.805,6.029,CST-1368DR,4815,5662,12545,0.876,551
2022-04-08T01:34:35,42.805,6.029,CST-1368DR,4815,5645,12507,0.888,551
2022-04-08T01:37:37,42.805,6.029,CST-1368DR,4815,5648,12514,0.886,551
2022-04-08T01:40:38,42.805,6.029,CST-1368DR,4815,5643,12504,0.889,551
2022-04-08T01:43:40,42.805,6.029,CST-1368DR,4815,5645,12507,0.888,551
2022-04-08T01:46:42,42.805,6.029,CST-1368DR,4815,5640,12496,0.892,551
2022-04-08T01:49:43,42.805,6.029,CST-1368DR,4815,5648,12514,0.886,551
2022-04-08T01:52:45,42.805,6.029,CST-1368DR,4815,5649,12516,0.885,551
2022-04-08T01:55:46,42.805,6.029,CST-1368DR,4815,5645,12508,0.888,551
2022-04-08T01:58:48,42.805,6.029,CST-1368DR,4815,5639,12494,0.892,551
2022-04-08T02:01:49,42.805,6.029,CST-1368DR,4815,5646,12509,0.887,551
2022-04-08T02:04:51,42.805,6.029,CST-1368DR,4815,5655,12529,0.881,551
2022-04-08T02:07:53,42.805,6.029,CST-1368DR,4815,5646,12511,0.887,551
2022-04-08T02:10:54,42.805,6.029,CST-1368DR,4815,5651,12520,0.884,551
2022-04-08T02:13:56,42.805,6.029,CST-1368DR,4815,5647,12513,0.886,551
2022-04-08T02:16:57,42.805,6.029,CST-1368DR,4815,5656,12531,0.880,551
2022-04-08T02:19:59,42.805,6.029,CST-1368DR,4815,5629,12473,0.899,551
2022-04-08T02:23:01,42.805,6.029,CST-1368DR,4815,5634,12483,0.896,551
2022-04-08T02:26:02,42.805,6.029,CST-1368DR,4815,5640,12497,0.891,551
2022-04-08T02:29:04,42.805,6.029,CST-1368DR,4815,5640,12497,0.891,551
2022-04-08T02:32:05,42.805,6.029,CST-1368DR,4815,5653,12526,0.882,551
2022-04-08T02:35:07,42.805,6.029,CST-1368DR,4815,5647,12511,0.887,551
2022-04-08T02:38:08,42.805,6.029,CST-1368DR,4815,5642,12501,0.890,551
2022-04-08T02:41:10,42.805,6.029,CST-1368DR,4815,5644,12506,0.888,551
2022-04-08T02:44:12,42.805,6.029,CST-1368DR,4815,5660,12541,0.877,551
2022-04-08T02:47:13,42.805,6.029,CST-1368DR,4815,5636,12488,0.894,551
2022-04-08T02:50:15,42.805,6.029,CST-1368DR,4815,5630,12474,0.899,551
2022-04-08T02:53:16,42.805,6.029,CST-1368DR,4815,5635,12486,0.895,551
2022-04-08T02:56:18,42.805,6.029,CST-1368DR,4815,5628,12471,0.900,551
2022-04-08T02:59:19,42.805,6.029,CST-1368DR,4815,5629,12472,0.899,551
2022-04-08T03:02:21,42.805,6.029,CST-1368DR,4815,5657,12534,0.879,551
2022-04-08T03:05:23,42.805,6.029,CST-1368DR,4814,5635,12489,0.894,551
2022-04-08T03:08:24,42.805,6.029,CST-1368DR,4814,5627,12470,0.900,551
2022-04-08T03:11:26,42.805,6.029,CST-1368DR,4815,5631,12477,0.898,551
2022-04-08T03:14:27,42.805,6.029,CST-1368DR,4814,5629,12476,0.898,551
2022-04-08T03:17:29,42.805,6.029,CST-1368DR,4815,5634,12484,0.895,551
2022-04-08T03:20:31,42.805,6.029,CST-1368DR,4815,5640,12496,0.892,551
2022-04-08T03:23:32,42.805,6.029,CST-1368DR,4815,5663,12547,0.875,551
2022-04-08T03:26:34,42.805,6.029,CST-1368DR,4815,5652,12523,0.883,551
2022-04-08T03:29:35,42.805,6.029,CST-1368DR,4815,5670,12562,0.870,551
2022-04-08T03:32:37,42.805,6.029,CST-1368DR,4815,5662,12546,0.876,551
2022-04-08T03:35:38,42.805,6.029,CST-1368DR,4815,5662,12545,0.876,551
2022-04-08T03:38:40,42.805,6.029,CST-1368DR,4815,5661,12542,0.877,551
2022-04-08T03:41:42,42.805,6.029,CST-1368DR,4815,5660,12542,0.877,551
2022-04-08T03:44:43,42.805,6.029,CST-1368DR,4815,5651,12522,0.883,551
2022-04-08T03:47:45,42.805,6.029,CST-1368DR,4815,5658,12537,0.878,551
2022-04-08T03:50:46,42.805,6.029,CST-1368DR,4815,5672,12567,0.869,551
2022-04-08T03:53:48,42.805,6.029,CST-1368DR,4815,5679,12583,0.864,551
2022-04-08T03:56:49,42.805,6.029,CST-1368DR,4815,5658,12536,0.879,551
2022-04-08T03:59:51,42.805,6.029,CST-1368DR,4815,5653,12526,0.882,551
2022-04-08T04:02:53,42.805,6.029,CST-1368DR,4815,5661,12542,0.877,551
2022-04-08T04:05:54,42.805,6.029,CST-1368DR,4815,5665,12553,0.873,551
2022-04-08T04:08:56,42.805,6.029,CST-1368DR,4815,5655,12530,0.881,551
2022-04-08T04:11:57,42.805,6.029,CST-1368DR,4815,5665,12552,0.874,551
2022-04-08T04:14:59,42.805,6.029,CST-1368DR,4815,5666,12554,0.873,551
2022-04-08T04:18:01,42.805,6.029,CST-1368DR,4815,5662,12546,0.876,551
2022-04-08T04:21:02,42.805,6.029,CST-1368DR,4815,5652,12524,0.883,551
2022-04-08T04:24:04,42.805,6.029,CST-1368DR,4815,5665,12552,0.874,551
2022-04-08T04:27:05,42.805,6.029,CST-1368DR,4815,5662,12546,0.876,551
2022-04-08T04:30:07,42.805,6.029,CST-1368DR,4815,5678,12582,0.864,551
2022-04-08T04:33:08,42.805,6.029,CST-1368DR,4815,5664,12549,0.875,550
2022-04-08T04:36:10,42.805,6.029,CST-1368DR,4815,5666,12555,0.873,550
2022-04-08T04:39:12,42.805,6.029,CST-1368DR,4815,5665,12552,0.874,551
2022-04-08T04:42:13,42.805,6.029,CST-1368DR,4815,5667,12557,0.872,551
2022-04-08T04:45:15,42.805,6.029,CST-1368DR,4815,5670,12563,0.870,551
2022-04-08T04:48:16,42.805,6.029,CST-1368DR,4815,5664,12550,0.874,551
2022-04-08T04:51:18,42.805,6.029,CST-1368DR,4815,5657,12534,0.879,551
2022-04-08T04:54:19,42.805,6.029,CST-1368DR,4815,5661,12542,0.877,551
2022-04-08T04:57:21,42.805,6.029,CST-1368DR,4814,5657,12537,0.878,551
2022-04-08T05:00:23,42.805,6.029,CST-1368DR,4815,5665,12551,0.874,551
2022-04-08T05:03:24,42.805,6.029,CST-1368DR,4814,5660,12544,0.876,551
2022-04-08T05:06:26,42.805,6.029,CST-1368DR,4815,5658,12537,0.878,551
2022-04-08T05:09:27,42.805,6.029,CST-1368DR,4815,5662,12545,0.876,551
2022-04-08T05:12:29,42.805,6.029,CST-1368DR,4814,5667,12559,0.871,551
2022-04-08T05:15:31,42.805,6.029,CST-1368DR,4814,5671,12567,0.869,551
2022-04-08T05:18:32,42.805,6.029,CST-1368DR,4814,5667,12559,0.871,551
2022-04-08T05:21:34,42.805,6.029,CST-1368DR,4814,5664,12552,0.874,551
2022-04-08T05:24:35,42.805,6.029,CST-1368DR,4814,5654,12531,0.880,551
2022-04-08T05:27:37,42.805,6.029,CST-1368DR,4814,5662,12547,0.875,551
2022-04-08T05:30:38,42.805,6.029,CST-1368DR,4814,5662,12547,0.875,551
2022-04-08T05:33:40,42.805,6.029,CST-1368DR,4814,5668,12560,0.871,551
2022-04-08T05:36:42,42.805,6.029,CST-1368DR,4814,5666,12558,0.872,551
2022-04-08T05:39:43,42.805,6.029,CST-1368DR,4814,5654,12531,0.880,551
2022-04-08T05:42:45,42.805,6.029,CST-1368DR,4814,5661,12545,0.876,551
2022-04-08T05:45:46,42.805,6.029,CST-1368DR,4814,5666,12558,0.872,551
2022-04-08T05:48:48,42.805,6.029,CST-1368DR,4814,5654,12531,0.880,551
2022-04-08T05:51:49,42.805,6.029,CST-1368DR,4814,5661,12547,0.875,551
2022-04-08T05:54:51,42.805,6.029,CST-1368DR,4814,5664,12552,0.874,551
2022-04-08T05:57:53,42.805,6.029,CST-1368DR,4814,5668,12562,0.870,551
2022-04-08T06:00:54,42.805,6.029,CST-1368DR,4814,5654,12530,0.881,551
2022-04-08T06:03:56,42.805,6.029,CST-1368DR,4814,5659,12541,0.877,551
2022-04-08T06:06:57,42.805,6.029,CST-1368DR,4814,5667,12558,0.872,551
2022-04-08T06:09:59,42.805,6.029,CST-1368DR,4814,5665,12554,0.873,551
2022-04-08T06:13:00,42.805,6.029,CST-1368DR,4814,5666,12557,0.872,551
2022-04-08T06:16:02,42.805,6.029,CST-1368DR,4814,5670,12566,0.869,551
2022-04-08T06:19:04,42.805,6.029,CST-1368DR,4814,5664,12552,0.874,551
2022-04-08T06:22:05,42.805,6.029,CST-1368DR,4814,5657,12537,0.878,551
2022-04-08T06:25:07,42.805,6.029,CST-1368DR,4814,5680,12588,0.862,551
2022-04-08T06:28:08,42.805,6.029,CST-1368DR,4814,5672,12570,0.868,551
2022-04-08T06:31:10,42.805,6.029,CST-1368DR,4814,5672,12571,0.868,551
2022-04-08T06:34:12,42.805,6.029,CST-1368DR,4814,5682,12592,0.861,551
2022-04-08T06:37:13,42.805,6.029,CST-1368DR,4814,5681,12590,0.862,551
2022-04-08T06:40:15,42.805,6.029,CST-1368DR,4814,5674,12574,0.867,551
2022-04-08T06:43:16,42.805,6.029,CST-1368DR,4814,5669,12563,0.870,551
2022-04-08T06:46:18,42.805,6.029,CST-1368DR,4814,5677,12581,0.864,551
2022-04-08T06:49:19,42.805,6.029,CST-1368DR,4814,5681,12590,0.862,551
2022-04-08T06:52:21,42.805,6.029,CST-1368DR,4814,5674,12575,0.866,551
2022-04-08T06:55:23,42.805,6.029,CST-1368DR,4814,5673,12572,0.867,551
2022-04-08T06:58:24,42.805,6.029,CST-1368DR,4814,5663,12551,0.874,551
2022-04-08T07:01:26,42.805,6.029,CST-1368DR,4814,5675,12576,0.866,551
2022-04-08T07:04:27,42.805,6.029,CST-1368DR,4814,5681,12591,0.861,551
2022-04-08T07:07:29,42.805,6.029,CST-1368DR,4814,5668,12562,0.870,551
2022-04-08T07:10:31,42.805,6.029,CST-1368DR,4814,5668,12560,0.871,551
2022-04-08T07:13:32,42.805,6.029,CST-1368DR,4814,5670,12565,0.870,551
2022-04-08T07:16:34,42.805,6.029,CST-1368DR,4814,5664,12553,0.873,551
2022-04-08T07:19:35,42.805,6.029,CST-1368DR,4814,5669,12563,0.870,551
2022-04-08T07:22:37,42.805,6.029,CST-1368DR,4814,5668,12560,0.871,551
2022-04-08T07:25:38,42.805,6.029,CST-1368DR,4814,5666,12556,0.872,551
2022-04-08T07:28:40,42.805,6.029,CST-1368DR,4814,5662,12548,0.875,551
2022-04-08T07:31:42,42.805,6.029,CST-1368DR,4814,5676,12580,0.865,551
2022-04-08T07:34:43,42.805,6.029,CST-1368DR,4814,5673,12573,0.867,551
2022-04-08T07:37:45,42.805,6.029,CST-1368DR,4814,5669,12563,0.870,551
2022-04-08T07:40:46,42.805,6.029,CST-1368DR,4814,5660,12543,0.877,551
2022-04-08T07:43:48,42.805,6.029,CST-1368DR,4814,5670,12565,0.870,551
2022-04-08T07:46:49,42.805,6.029,CST-1368DR,4814,5667,12560,0.871,551
2022-04-08T07:49:51,42.805,6.029,CST-1368DR,4814,5667,12558,0.872,551
2022-04-08T07:52:53,42.805,6.029,CST-1368DR,4814,5666,12557,0.872,551
2022-04-08T07:55:54,42.805,6.029,CST-1368DR,4814,5666,12556,0.872,551
2022-04-08T07:58:56,42.805,6.029,CST-1368DR,4814,5667,12559,0.871,551
2022-04-08T08:01:57,42.805,6.029,CST-1368DR,4814,5665,12554,0.873,551
2022-04-08T08:04:59,42.805,6.029,CST-1368DR,4814,5664,12552,0.874,551
2022-04-08T08:08:00,42.805,6.029,CST-1368DR,4814,5668,12562,0.870,551
2022-04-08T08:11:02,42.805,6.029,CST-1368DR,4814,5665,12555,0.873,551
2022-04-08T08:14:04,42.805,6.029,CST-1368DR,4814,5666,12557,0.872,551
2022-04-08T08:17:05,42.805,6.029,CST-1368DR,4814,5665,12554,0.873,551
2022-04-08T08:20:07,42.805,6.029,CST-1368DR,4814,5665,12554,0.873,551
2022-04-08T08:23:08,42.805,6.029,CST-1368DR,4814,5661,12545,0.876,551
2022-04-08T08:26:10,42.805,6.029,CST-1368DR,4814,5661,12545,0.876,551
2022-04-08T08:29:12,42.805,6.029,CST-1368DR,4814,5663,12550,0.874,551
2022-04-08T08:32:13,42.805,6.029,CST-1368DR,4814,5657,12537,0.878,551
2022-04-08T08:35:15,42.805,6.029,CST-1368DR,4814,5665,12555,0.873,551
2022-04-08T08:38:16,42.805,6.029,CST-1368DR,4814,5661,12545,0.876,551
2022-04-08T08:41:18,42.805,6.029,CST-1368DR,4814,5662,12549,0.875,551
2022-04-08T08:44:19,42.805,6.029,CST-1368DR,4814,5660,12543,0.877,551
2022-04-08T08:47:21,42.805,6.029,CST-1368DR,4814,5661,12545,0.876,551
2022-04-08T08:50:23,42.805,6.029,CST-1368DR,4814,5664,12552,0.874,551
2022-04-08T08:53:24,42.805,6.029,CST-1368DR,4814,5658,12538,0.878,551
2022-04-08T08:56:26,42.805,6.029,CST-1368DR,4814,5664,12552,0.874,551
2022-04-08T08:59:27,42.805,6.029,CST-1368DR,4814,5664,12552,0.874,551
2022-04-08T09:02:29,42.805,6.029,CST-1368DR,4814,5659,12542,0.877,551
2022-04-08T09:05:31,42.805,6.029,CST-1368DR,4814,5661,12546,0.876,551
2022-04-08T09:08:32,42.805,6.029,CST-1368DR,4814,5666,12556,0.872,551
2022-04-08T09:11:34,42.805,6.029,CST-1368DR,4814,5667,12559,0.871,551
2022-04-08T09:14:35,42.805,6.029,CST-1368DR,4814,5674,12575,0.866,551
2022-04-08T09:17:37,42.805,6.029,CST-1368DR,4814,5663,12550,0.874,551
2022-04-08T09:20:38,42.805,6.029,CST-1368DR,4814,5666,12557,0.872,551
2022-04-08T09:23:40,42.805,6.029,CST-1368DR,4814,5655,12533,0.880,551
2022-04-08T09:26:42,42.805,6.029,CST-1368DR,4814,5668,12560,0.871,551
2022-04-08T09:29:43,42.805,6.029,CST-1368DR,4814,5654,12529,0.881,551
2022-04-08T09:32:45,42.805,6.029,CST-1368DR,4814,5661,12545,0.876,551
2022-04-08T09:35:46,42.805,6.029,CST-1368DR,4814,5658,12538,0.878,551
2022-04-08T09:38:48,42.805,6.029,CST-1368DR,4814,5659,12542,0.877,551
2022-04-08T09:41:49,42.805,6.029,CST-1368DR,4814,5660,12544,0.876,551
2022-04-08T09:44:51,42.805,6.029,CST-1368DR,4814,5659,12540,0.877,551
2022-04-08T09:47:53,42.805,6.029,CST-1368DR,4814,5664,12553,0.873,551
2022-04-08T09:50:54,42.805,6.029,CST-1368DR,4814,5661,12547,0.875,551
2022-04-08T09:53:56,42.805,6.029,CST-1368DR,4814,5665,12554,0.873,551
2022-04-08T09:56:57,42.805,6.029,CST-1368DR,4814,5666,12556,0.872,551
2022-04-08T09:59:59,42.805,6.029,CST-1368DR,4814,5664,12552,0.874,551
2022-04-08T10:03:01,42.805,6.029,CST-1368DR,4814,5654,12531,0.880,551
2022-04-08T10:06:02,42.805,6.029,CST-1368DR,4814,5665,12554,0.873,551
2022-04-08T10:09:04,42.805,6.029,CST-1368DR,4814,5664,12553,0.873,551
2022-04-08T10:12:05,42.805,6.029,CST-1368DR,4814,5666,12557,0.872,551
2022-04-08T10:15:07,42.805,6.029,CST-1368DR,4814,5660,12543,0.877,551
2022-04-08T10:18:08,42.805,6.029,CST-1368DR,4814,5659,12542,0.877,551
2022-04-08T10:21:10,42.805,6.029,CST-1368DR,4814,5663,12550,0.874,551
2022-04-08T10:24:12,42.805,6.029,CST-1368DR,4814,5661,12545,0.876,551
2022-04-08T10:27:13,42.805,6.029,CST-1368DR,4814,5658,12539,0.878,551
2022-04-08T10:30:15,42.805,6.029,CST-1368DR,4814,5663,12550,0.874,551
2022-04-08T10:33:16,42.805,6.029,CST-1368DR,4814,5665,12555,0.873,551
2022-04-08T10:36:18,42.805,6.029,CST-1368DR,4814,5663,12550,0.874,551
2022-04-08T10:39:20,42.805,6.029,CST-1368DR,4814,5666,12556,0.872,551
2022-04-08T10:42:21,42.805,6.029,CST-1368DR,4814,5665,12554,0.873,551
2022-04-08T10:45:23,42.805,6.029,CST-1368DR,4814,5660,12543,0.877,551
2022-04-08T10:48:24,42.805,6.029,CST-1368DR,4814,5665,12555,0.873,551
2022-04-08T10:51:26,42.805,6.029,CST-1368DR,4814,5663,12550,0.874,551
2022-04-08T10:54:27,42.805,6.029,CST-1368DR,4814,5666,12556,0.872,551
2022-04-08T10:57:29,42.805,6.029,CST-1368DR,4814,5662,12549,0.875,551
2022-04-08T11:00:31,42.805,6.029,CST-1368DR,4814,5658,12539,0.878,551
2022-04-08T11:03:32,42.805,6.029,CST-1368DR,4814,5660,12544,0.876,551
2022-04-08T11:06:34,42.805,6.029,CST-1368DR,4814,5662,12548,0.875,551
2022-04-08T11:09:35,42.805,6.029,CST-1368DR,4814,5667,12559,0.871,551
2022-04-08T11:12:37,42.805,6.029,CST-1368DR,4814,5662,12549,0.875,551
2022-04-08T11:15:38,42.805,6.029,CST-1368DR,4814,5663,12550,0.874,551
2022-04-08T11:18:40,42.805,6.029,CST-1368DR,4814,5662,12547,0.875,551
2022-04-08T11:21:42,42.805,6.029,CST-1368DR,4814,5661,12547,0.875,551
2022-04-08T11:24:43,42.805,6.029,CST-1368DR,4814,5661,12547,0.875,551
2022-04-08T11:27:45,42.805,6.029,CST-1368DR,4814,5664,12552,0.874,551
2022-04-08T11:30:46,42.805,6.029,CST-1368DR,4814,5659,12541,0.877,551
2022-04-08T11:33:48,42.805,6.029,CST-1368DR,4814,5657,12538,0.878,551
2022-04-08T11:36:50,42.805,6.029,CST-1368DR,4814,5662,12549,0.875,551
2022-04-08T11:39:51,42.805,6.029,CST-1368DR,4814,5659,12541,0.877,551
2022-04-08T11:42:53,42.805,6.029,CST-1368DR,4814,5659,12542,0.877,551
2022-04-08T11:45:54,42.805,6.029,CST-1368DR,4814,5658,12538,0.878,551
2022-04-08T11:48:56,42.805,6.029,CST-1368DR,4814,5662,12549,0.875,551
2022-04-08T11:51:57,42.805,6.029,CST-1368DR,4814,5654,12531,0.880,551
2022-04-08T11:54:59,42.805,6.029,CST-1368DR,4814,5660,12544,0.876,551
2022-04-08T11:58:01,42.805,6.029,CST-1368DR,4813,5657,12540,0.877,551
2022-04-08T12:01:02,42.805,6.029,CST-1368DR,4814,5662,12547,0.875,551
2022-04-08T12:04:04,42.805,6.029,CST-1368DR,4814,5663,12551,0.874,551
2022-04-08T12:07:05,42.805,6.029,CST-1368DR,4813,5657,12539,0.878,551
2022-04-08T12:10:07,42.805,6.029,CST-1368DR,4813,5654,12534,0.879,551
2022-04-08T12:13:08,42.805,6.029,CST-1368DR,4813,5655,12535,0.879,551
2022-04-08T12:16:10,42.805,6.029,CST-1368DR,4814,5660,12544,0.876,551
2022-04-08T12:19:12,42.805,6.029,CST-1368DR,4814,5656,12534,0.879,551
2022-04-08T12:22:13,42.805,6.029,CST-1368DR,4814,5658,12540,0.877,551
2022-04-08T12:25:15,42.805,6.029,CST-1368DR,4813,5653,12530,0.881,551
2022-04-08T12:28:16,42.805,6.029,CST-1368DR,4813,5660,12545,0.876,551
2022-04-08T12:31:18,42.805,6.029,CST-1368DR,4813,5658,12541,0.877,551
2022-04-08T12:34:19,42.805,6.029,CST-1368DR,4813,5656,12536,0.879,551
2022-04-08T12:37:21,42.805,6.029,CST-1368DR,4813,5661,12549,0.875,551
2022-04-08T12:40:23,42.805,6.029,CST-1368DR,4813,5662,12551,0.874,551
2022-04-08T12:43:24,42.805,6.029,CST-1368DR,4813,5661,12547,0.875,551
2022-04-08T12:46:26,42.805,6.029,CST-1368DR,4813,5659,12543,0.877,551
2022-04-08T12:49:27,42.805,6.029,CST-1368DR,4813,5658,12542,0.877,551
2022-04-08T12:52:29,42.805,6.029,CST-1368DR,4814,5660,12543,0.877,551
2022-04-08T12:55:31,42.805,6.029,CST-1368DR,4814,5661,12545,0.876,551
2022-04-08T12:58:32,42.805,6.029,CST-1368DR,4813,5658,12541,0.877,551
2022-04-08T13:01:34,42.805,6.029,CST-1368DR,4814,5653,12529,0.881,551
2022-04-08T13:04:35,42.805,6.029,CST-1368DR,4813,5654,12534,0.879,551
2022-04-08T13:07:37,42.805,6.029,CST-1368DR,4813,5658,12542,0.877,551
2022-04-08T13:10:38,42.805,6.029,CST-1368DR,4813,5659,12544,0.876,551
2022-04-08T13:13:40,42.805,6.029,CST-1368DR,4813,5659,12544,0.876,551
2022-04-08T13:16:42,42.805,6.029,CST-1368DR,4813,5660,12546,0.876,551
2022-04-08T13:19:43,42.805,6.029,CST-1368DR,4813,5657,12539,0.878,551
2022-04-08T13:22:45,42.805,6.029,CST-1368DR,4813,5652,12529,0.881,551
2022-04-08T13:25:46,42.805,6.029,CST-1368DR,4813,5658,12541,0.877,551
2022-04-08T13:28:48,42.805,6.029,CST-1368DR,4813,5658,12541,0.877,551
2022-04-08T13:31:50,42.805,6.029,CST-1368DR,4813,5660,12546,0.876,551
2022-04-08T13:34:51,42.805,6.029,CST-1368DR,4813,5657,12540,0.877,551
2022-04-08T13:37:53,42.805,6.029,CST-1368DR,4813,5656,12538,0.878,551
2022-04-08T13:40:54,42.805,6.029,CST-1368DR,4813,5655,12535,0.879,551
2022-04-08T13:43:56,42.805,6.029,CST-1368DR,4813,5660,12547,0.875,551
2022-04-08T13:46:57,42.805,6.029,CST-1368DR,4813,5660,12547,0.875,551
2022-04-08T13:49:59,42.805,6.029,CST-1368DR,4813,5655,12535,0.879,551
2022-04-08T13:53:01,42.805,6.029,CST-1368DR,4813,5662,12551,0.874,551
2022-04-08T13:56:02,42.805,6.029,CST-1368DR,4813,5658,12541,0.877,551
2022-04-08T13:59:04,42.805,6.029,CST-1368DR,4813,5656,12536,0.879,551
2022-04-08T14:02:05,42.805,6.029,CST-1368DR,4813,5655,12536,0.879,551
2022-04-08T14:05:07,42.805,6.029,CST-1368DR,4813,5550,12301,0.954,551
2022-04-08T14:08:08,42.805,6.029,CST-1368DR,4813,5655,12535,0.879,551
2022-04-08T14:11:10,42.805,6.029,CST-1368DR,4813,5658,12542,0.877,551
2022-04-08T14:14:12,42.805,6.029,CST-1368DR,4813,5658,12541,0.877,551
2022-04-08T14:17:13,42.805,6.029,CST-1368DR,4813,5657,12540,0.877,551
2022-04-08T14:20:15,42.805,6.029,CST-1368DR,4813,5652,12527,0.882,551
2022-04-08T14:23:16,42.805,6.029,CST-1368DR,4813,5651,12526,0.882,551
2022-04-08T14:26:18,42.805,6.029,CST-1368DR,4813,5652,12529,0.881,551
2022-04-08T14:29:19,42.805,6.029,CST-1368DR,4813,5654,12534,0.879,551
2022-04-08T14:32:21,42.805,6.029,CST-1368DR,4813,5657,12539,0.878,551
2022-04-08T14:35:23,42.805,6.029,CST-1368DR,4813,5662,12551,0.874,551
2022-04-08T14:38:24,42.805,6.029,CST-1368DR,4813,5652,12527,0.882,551
2022-04-08T14:41:26,42.805,6.029,CST-1368DR,4813,5650,12524,0.883,551
2022-04-08T14:44:27,42.805,6.029,CST-1368DR,4813,5655,12536,0.879,551
2022-04-08T14:47:29,42.805,6.029,CST-1368DR,4813,5656,12538,0.878,551
2022-04-08T14:50:31,42.805,6.029,CST-1368DR,4813,5656,12536,0.879,551
2022-04-08T14:53:32,42.805,6.029,CST-1368DR,4813,5655,12535,0.879,551
2022-04-08T14:56:34,42.805,6.029,CST-1368DR,4813,5656,12537,0.878,551
2022-04-08T14:59:35,42.805,6.029,CST-1368DR,4813,5648,12519,0.884,551
2022-04-08T15:02:37,42.805,6.029,CST-1368DR,4813,5658,12541,0.877,551
2022-04-08T15:05:38,42.805,6.029,CST-1368DR,4813,5655,12535,0.879,551
2022-04-08T15:08:40,42.805,6.029,CST-1368DR,4813,5650,12524,0.883,551
2022-04-08T15:11:42,42.805,6.029,CST-1368DR,4813,5645,12512,0.886,551
2022-04-08T15:14:43,42.805,6.029,CST-1368DR,4813,5658,12542,0.877,551
2022-04-08T15:17:45,42.805,6.029,CST-1368DR,4813,5649,12521,0.884,551
2022-04-08T15:20:46,42.805,6.029,CST-1368DR,4813,5657,12539,0.878,551
2022-04-08T15:23:48,42.805,6.029,CST-1368DR,4813,5653,12530,0.881,551
2022-04-08T15:26:49,42.805,6.029,CST-1368DR,4813,5657,12539,0.878,551
2022-04-08T15:29:51,42.805,6.029,CST-1368DR,4813,5661,12549,0.875,551
2022-04-08T15:32:53,42.805,6.029,CST-1368DR,4813,5658,12541,0.877,551
2022-04-08T15:35:54,42.805,6.029,CST-1368DR,4813,5674,12577,0.866,551
2022-04-08T15:38:56,42.805,6.029,CST-1368DR,4813,5663,12553,0.873,551
2022-04-08T15:41:57,42.805,6.029,CST-1368DR,4813,5666,12559,0.871,551
2022-04-08T15:44:59,42.805,6.029,CST-1368DR,4813,5655,12535,0.879,551
2022-04-08T15:48:01,42.805,6.029,CST-1368DR,4813,5661,12548,0.875,551
2022-04-08T15:51:02,42.805,6.029,CST-1368DR,4813,5659,12544,0.876,551
2022-04-08T15:54:04,42.805,6.029,CST-1368DR,4813,5662,12550,0.874,551
2022-04-08T15:57:05,42.805,6.029,CST-1368DR,4813,5655,12535,0.879,551
2022-04-08T16:00:07,42.805,6.029,CST-1368DR,4813,5667,12561,0.871,551
2022-04-08T16:03:08,42.805,6.029,CST-1368DR,4813,5661,12548,0.875,551
2022-04-08T16:06:10,42.805,6.029,CST-1368DR,4813,5667,12562,0.870,551
2022-04-08T16:09:12,42.805,6.029,CST-1368DR,4813,5658,12542,0.877,551
2022-04-08T16:12:13,42.805,6.029,CST-1368DR,4813,5653,12530,0.881,551
2022-04-08T16:15:15,42.805,6.029,CST-1368DR,4813,5658,12541,0.877,551
2022-04-08T16:18:16,42.805,6.029,CST-1368DR,4813,5658,12541,0.877,551
2022-04-08T16:21:18,42.805,6.029,CST-1368DR,4813,5659,12544,0.876,551
2022-04-08T16:24:19,42.805,6.029,CST-1368DR,4813,5654,12534,0.879,551
2022-04-08T16:27:21,42.805,6.029,CST-1368DR,4813,5657,12539,0.878,551
2022-04-08T16:30:23,42.805,6.029,CST-1368DR,4813,5650,12525,0.882,551
2022-04-08T16:33:24,42.805,6.029,CST-1368DR,4813,5652,12529,0.881,551
2022-04-08T16:36:26,42.805,6.029,CST-1368DR,4813,5655,12534,0.879,551
2022-04-08T16:39:27,42.805,6.029,CST-1368DR,4813,5653,12530,0.881,551
2022-04-08T16:42:29,42.805,6.029,CST-1368DR,4813,5667,12561,0.871,551
2022-04-08T16:45:31,42.805,6.029,CST-1368DR,4813,5654,12534,0.879,551
2022-04-08T16:48:32,42.805,6.029,CST-1368DR,4813,5651,12526,0.882,551
2022-04-08T16:51:34,42.805,6.029,CST-1368DR,4813,5653,12530,0.881,551